Weather History for Dallas/Ft Worth, TX

Change the Weather History Date:

Monday, May 7, 2012

  Actual Average Record
Temperature  
Mean Temperature 79 °F 71 °F  
Max Temperature 88 °F 81 °F 96 °F (1918)
Min Temperature 70 °F 62 °F 44 °F (1917)
Degree Days  
Heating Degree Days 0 0  
Month to date heating degree days 0 6  
Since 1 July heating degree days 1777 2282  
Cooling Degree Days 14 7  
Month to date cooling degree days 108 43  
Year to date cooling degree days 387 181  
Growing Degree Days 30 (Base 50)    
Moisture  
Dew Point 66 °F    
Average Humidity 66    
Maximum Humidity 79    
Minimum Humidity 53    
Precipitation  
Precipitation T in 0.16 in 3.48 in (1925)
Month to date precipitation T 1.10  
Year to date precipitation 18.04 12.45  
Sea Level Pressure  
Sea Level Pressure 29.84 in    
Wind  
Wind Speed 10 mph (NNW)    
Max Wind Speed 25 mph    
Max Gust Speed 29 mph    
Visibility 10 miles    
Events      
T = Trace of Precipitation, MM = Missing Value Source: NWS Daily Summary

Daily Weather History Graph

Daily Weather History Graph

Search for Another Location

Airport:

Trip Planner

Search our weather history database for the weather conditions in past years. The results will help you decide how hot, cold, wet, or windy it might be!

Date:

Astronomy

May. 07, 2012 Rise Set
Actual Time 6:34 AM CDT 8:14 PM CDT
Civil Twilight 6:08 AM CDT 8:41 PM CDT
Nautical Twilight 5:35 AM CDT 9:13 PM CDT
Astronomical Twilight 5:02 AM CDT 9:47 PM CDT
Moon 10:23 PM CDT (5/7) 7:46 AM CDT (5/7)
Length of Visible Light 14h 33m
Length of Day
13h 40m
Waning Gibbous, 96% of the Moon is Illuminated
May 7
Waning Gibbous
May 12
Last Quarter
May 20
New
May 28
First Quarter
Jun 4
Full

Hourly Weather History & Observations

Time (CDT) Temp. Heat Index Dew Point Humidity Pressure Visibility Wind Dir Wind Speed Gust Speed Precip Events Conditions
12:53 AM 78.1 °F - 66.0 °F 66% 29.78 in 10.0 mi South 16.1 mph 24.2 mph N/A   Overcast
1:53 AM 78.1 °F - 66.9 °F 68% 29.78 in 10.0 mi South 18.4 mph 28.8 mph N/A   Overcast
2:53 AM 77.0 °F - 66.9 °F 71% 29.78 in 10.0 mi SSW 16.1 mph - N/A   Overcast
3:53 AM 73.9 °F - 66.9 °F 79% 29.76 in 10.0 mi SE 3.5 mph - N/A   Overcast
4:53 AM 73.9 °F - 66.9 °F 79% 29.78 in 10.0 mi Calm Calm - N/A   Mostly Cloudy
5:53 AM 73.0 °F - 66.0 °F 79% 29.80 in 10.0 mi NNW 4.6 mph - N/A   Mostly Cloudy
6:53 AM 72.0 °F - 63.0 °F 73% 29.82 in 10.0 mi Calm Calm - N/A   Mostly Cloudy
7:53 AM 75.0 °F - 62.1 °F 64% 29.84 in 10.0 mi NNW 5.8 mph - N/A   Scattered Clouds
8:53 AM 77.0 °F - 63.0 °F 62% 29.84 in 10.0 mi NW 9.2 mph - N/A   Scattered Clouds
9:53 AM 78.1 °F - 64.0 °F 62% 29.86 in 10.0 mi NW 9.2 mph - N/A   Scattered Clouds
10:53 AM 80.1 °F 81.7 °F 64.0 °F 58% 29.88 in 10.0 mi NNW 9.2 mph - N/A   Scattered Clouds
11:53 AM 84.0 °F 86.5 °F 66.9 °F 56% 29.89 in 10.0 mi NNW 10.4 mph - N/A   Scattered Clouds
12:53 PM 84.9 °F 87.6 °F 66.9 °F 55% 29.88 in 10.0 mi NNW 9.2 mph - N/A   Scattered Clouds
1:53 PM 88.0 °F 91.4 °F 68.0 °F 51% 29.86 in 10.0 mi NNW 11.5 mph 16.1 mph N/A   Scattered Clouds
2:53 PM 87.1 °F 91.3 °F 69.1 °F 55% 29.82 in 10.0 mi NNE 9.2 mph 17.3 mph N/A   Scattered Clouds
3:53 PM 86.0 °F 89.4 °F 68.0 °F 55% 29.81 in 10.0 mi NNE 10.4 mph - N/A   Overcast
4:53 PM 82.9 °F 85.8 °F 68.0 °F 60% 29.81 in 10.0 mi North 10.4 mph - N/A   Overcast
5:53 PM 81.0 °F 83.3 °F 66.9 °F 62% 29.81 in 10.0 mi North 18.4 mph - N/A   Overcast
6:53 PM 77.0 °F - 66.0 °F 69% 29.84 in 10.0 mi NNW 18.4 mph - N/A   Overcast
7:53 PM 75.0 °F - 64.9 °F 71% 29.88 in 10.0 mi NW 18.4 mph 23.0 mph N/A   Overcast
8:53 PM 73.9 °F - 64.0 °F 71% 29.89 in 10.0 mi NW 15.0 mph - N/A   Overcast
9:53 PM 73.0 °F - 64.0 °F 73% 29.89 in 10.0 mi NNW 11.5 mph - N/A   Overcast
10:53 PM 72.0 °F - 64.0 °F 76% 29.85 in 10.0 mi NE 9.2 mph - N/A   Overcast
11:18 PM 73.4 °F - 64.4 °F 73% 29.92 in 10.0 mi NW 8.1 mph - N/A   Overcast
11:53 PM 72.0 °F - 64.9 °F 78% 29.93 in 10.0 mi West 10.4 mph - N/A   Overcast